AFG185 OAKB-OIIE

Flight info

Callsign AFG185
Flight time N/A
Altitude 36000
Route LOBRE DCT TAPIS P173 DAVET B475 NINOP A847 NAZAR A647 MUXOR
Aircraft A333/H-SDE3GHIJ2J3J5M1RVWXY/LB2D1

Departure

Time 2026-05-05 11:06
Airport Kabul International Airport (OAKB)

Arrival

Time N/A
Airport Imam Khomeini International Airport (OIIE)
Time Latitude Longitude Altitude Speed Heading
2026-05-05 10:39 34.56285 69.20927 5891 ft 0 kts 201°
2026-05-05 10:56 34.56305 69.20936 5891 ft 4 kts 201°
2026-05-05 10:56 34.56325 69.20945 5891 ft 4 kts 197°
2026-05-05 10:57 34.56351 69.20952 5891 ft 4 kts 185°
2026-05-05 10:57 34.56377 69.20953 5891 ft 3 kts 175°
2026-05-05 10:57 34.56380 69.20953 5891 ft 5 kts 175°
2026-05-05 10:59 34.56379 69.20953 5891 ft 1 kts 175°
2026-05-05 11:00 34.56358 69.20968 5891 ft 6 kts 136°
2026-05-05 11:00 34.56331 69.21029 5891 ft 11 kts 114°
2026-05-05 11:00 34.56296 69.21136 5891 ft 16 kts 111°
2026-05-05 11:00 34.56248 69.21280 5892 ft 21 kts 111°
2026-05-05 11:01 34.56199 69.21458 5892 ft 23 kts 99°
2026-05-05 11:01 34.56181 69.21642 5892 ft 22 kts 97°
2026-05-05 11:01 34.56169 69.21818 5893 ft 20 kts 97°
2026-05-05 11:01 34.56157 69.21985 5893 ft 20 kts 94°
2026-05-05 11:02 34.56147 69.22144 5894 ft 19 kts 94°
2026-05-05 11:02 34.56125 69.22297 5894 ft 18 kts 108°
2026-05-05 11:02 34.56084 69.22437 5894 ft 17 kts 105°
2026-05-05 11:02 34.56054 69.22571 5895 ft 16 kts 105°
2026-05-05 11:03 34.56023 69.22702 5895 ft 16 kts 110°
2026-05-05 11:03 34.55992 69.22825 5895 ft 13 kts 98°
2026-05-05 11:03 34.55973 69.22894 5895 ft 8 kts 96°
2026-05-05 11:03 34.55983 69.22955 5895 ft 7 kts 66°
2026-05-05 11:04 34.56018 69.22997 5895 ft 7 kts 29°
2026-05-05 11:04 34.56063 69.23014 5895 ft 7 kts
2026-05-05 11:04 34.56107 69.23005 5895 ft 7 kts 335°
2026-05-05 11:04 34.56138 69.22965 5895 ft 6 kts 298°
2026-05-05 11:05 34.56151 69.22917 5895 ft 0 kts 288°
2026-05-05 11:05 34.56189 69.22776 5896 ft 46 kts 287°
2026-05-05 11:05 34.56350 69.22142 5893 ft 110 kts 287°
2026-05-05 11:06 34.56637 69.21028 5896 ft 166 kts 286°
2026-05-05 11:06 34.57008 69.19657 6601 ft 169 kts 288°
2026-05-05 11:06 34.57401 69.18308 7483 ft 169 kts 288°
2026-05-05 11:06 34.57797 69.16926 8074 ft 181 kts 288°
2026-05-05 11:07 34.58420 69.15480 8314 ft 210 kts 315°
2026-05-05 11:07 34.59821 69.14701 8490 ft 242 kts 355°
2026-05-05 11:07 34.61533 69.15171 8676 ft 270 kts 31°
2026-05-05 11:07 34.62845 69.16877 9029 ft 288 kts 64°
2026-05-05 11:08 34.63552 69.19189 9667 ft 295 kts 73°
2026-05-05 11:08 34.63857 69.21663 10308 ft 302 kts 92°
2026-05-05 11:08 34.63319 69.24177 10590 ft 320 kts 120°
2026-05-05 11:08 34.61800 69.26226 10804 ft 338 kts 146°
2026-05-05 11:09 34.59616 69.27327 11007 ft 355 kts 170°
2026-05-05 11:09 34.57110 69.27258 11251 ft 368 kts 194°
2026-05-05 11:09 34.54771 69.25965 11699 ft 375 kts 216°
2026-05-05 11:09 34.52972 69.23654 12236 ft 379 kts 238°
2026-05-05 11:10 34.51991 69.20691 12765 ft 383 kts 258°
2026-05-05 11:10 34.51819 69.17457 13292 ft 387 kts 273°
2026-05-05 11:10 34.52215 69.14219 13793 ft 391 kts 283°
2026-05-05 11:10 34.53055 69.11063 14281 ft 395 kts 291°
2026-05-05 11:11 34.54233 69.08045 14743 ft 399 kts 300°
2026-05-05 11:11 34.55879 69.05324 15190 ft 403 kts 313°
2026-05-05 11:11 34.57941 69.03004 15631 ft 406 kts 316°
2026-05-05 11:11 34.59917 69.00550 16045 ft 408 kts 311°
2026-05-05 11:12 34.61733 68.97880 16439 ft 411 kts 308°
2026-05-05 11:12 34.63478 68.95168 16818 ft 414 kts 307°
2026-05-05 11:12 34.65219 68.92363 17186 ft 417 kts 306°
2026-05-05 11:12 34.66940 68.89519 17556 ft 419 kts 306°
2026-05-05 11:13 34.68660 68.86636 17893 ft 422 kts 305°
2026-05-05 11:13 34.70379 68.83737 18214 ft 425 kts 305°
2026-05-05 11:13 34.72112 68.80810 18550 ft 427 kts 305°
2026-05-05 11:13 34.73851 68.77872 18855 ft 429 kts 305°
2026-05-05 11:14 34.75602 68.74919 19150 ft 432 kts 305°
2026-05-05 11:14 34.77365 68.71945 19424 ft 434 kts 305°
2026-05-05 11:14 34.79139 68.68955 19687 ft 436 kts 305°
2026-05-05 11:14 34.80922 68.65950 19934 ft 438 kts 305°
2026-05-05 11:15 34.82709 68.62935 20165 ft 440 kts 305°
2026-05-05 11:15 34.84506 68.59902 20394 ft 442 kts 305°
2026-05-05 11:15 34.86308 68.56859 20619 ft 443 kts 305°
2026-05-05 11:15 34.88090 68.53845 20825 ft 445 kts 305°
2026-05-05 11:16 34.89900 68.50779 21026 ft 447 kts 305°
2026-05-05 11:16 34.91717 68.47699 21220 ft 448 kts 305°
2026-05-05 11:16 34.93540 68.44607 21407 ft 450 kts 305°
2026-05-05 11:16 34.95368 68.41502 21590 ft 451 kts 305°
2026-05-05 11:17 34.97200 68.38388 21768 ft 453 kts 305°
2026-05-05 11:17 34.99038 68.35263 21938 ft 454 kts 305°
2026-05-05 11:17 35.00882 68.32123 22107 ft 456 kts 305°
2026-05-05 11:17 35.02731 68.28973 22257 ft 457 kts 305°
2026-05-05 11:18 35.04583 68.25814 22411 ft 458 kts 305°
2026-05-05 11:18 35.06428 68.22626 22565 ft 459 kts 304°
2026-05-05 11:18 35.08253 68.19423 22710 ft 461 kts 304°
2026-05-05 11:18 35.10079 68.16191 22847 ft 462 kts 304°
2026-05-05 11:19 35.11899 68.12958 22989 ft 463 kts 304°
2026-05-05 11:19 35.13706 68.09746 23124 ft 464 kts 304°
2026-05-05 11:19 35.15536 68.06496 23255 ft 465 kts 304°
2026-05-05 11:19 35.17377 68.03228 23382 ft 466 kts 304°
2026-05-05 11:20 35.19220 67.99956 23508 ft 467 kts 304°
2026-05-05 11:20 35.21062 67.96685 23631 ft 468 kts 304°
2026-05-05 11:20 35.22915 67.93392 23749 ft 469 kts 304°
2026-05-05 11:20 35.24767 67.90099 23865 ft 470 kts 304°
2026-05-05 11:21 35.26624 67.86794 23978 ft 471 kts 304°
2026-05-05 11:21 35.28482 67.83484 24087 ft 472 kts 304°
2026-05-05 11:21 35.30352 67.80174 24196 ft 473 kts 304°
2026-05-05 11:21 35.32233 67.76871 24304 ft 474 kts 304°
2026-05-05 11:22 35.34128 67.73556 24407 ft 475 kts 304°
2026-05-05 11:22 35.36025 67.70235 24503 ft 476 kts 304°
2026-05-05 11:22 35.37927 67.66904 24598 ft 477 kts 304°
2026-05-05 11:22 35.39827 67.63571 24696 ft 477 kts 304°
2026-05-05 11:23 35.41704 67.60273 24787 ft 478 kts 304°
2026-05-05 11:23 35.43606 67.56926 24879 ft 479 kts 304°
2026-05-05 11:23 35.45516 67.53559 24968 ft 480 kts 304°
2026-05-05 11:23 35.47429 67.50185 25053 ft 481 kts 304°
2026-05-05 11:24 35.49341 67.46810 25134 ft 481 kts 304°
2026-05-05 11:24 35.51253 67.43429 25213 ft 482 kts 304°
2026-05-05 11:24 35.53165 67.40046 25288 ft 483 kts 304°
2026-05-05 11:24 35.55079 67.36658 25361 ft 483 kts 304°
2026-05-05 11:25 35.56996 67.33259 25435 ft 484 kts 304°
2026-05-05 11:25 35.58890 67.29897 25509 ft 485 kts 304°
2026-05-05 11:25 35.60809 67.26489 25581 ft 485 kts 304°
2026-05-05 11:25 35.62735 67.23067 25652 ft 486 kts 304°
2026-05-05 11:26 35.64654 67.19651 25721 ft 486 kts 304°
2026-05-05 11:26 35.66577 67.16225 25783 ft 487 kts 304°
2026-05-05 11:26 35.68502 67.12794 25844 ft 488 kts 304°
2026-05-05 11:26 35.70425 67.09361 25906 ft 488 kts 304°
2026-05-05 11:27 35.71733 67.07024 25945 ft 488 kts 304°
2026-05-05 11:27 35.73636 67.03622 26003 ft 489 kts 304°
2026-05-05 11:27 35.75567 67.00165 26062 ft 489 kts 304°
2026-05-05 11:27 35.77495 66.96712 26119 ft 490 kts 304°
2026-05-05 11:28 35.79430 66.93243 26171 ft 490 kts 304°
2026-05-05 11:28 35.81367 66.89778 26222 ft 491 kts 304°
2026-05-05 11:28 35.83305 66.86318 26272 ft 491 kts 304°
2026-05-05 11:28 35.85248 66.82848 26320 ft 492 kts 304°
2026-05-05 11:29 35.87198 66.79366 26369 ft 492 kts 304°
2026-05-05 11:29 35.89143 66.75889 26416 ft 493 kts 304°
2026-05-05 11:29 35.91088 66.72406 26464 ft 493 kts 304°
2026-05-05 11:29 35.93013 66.68955 26507 ft 493 kts 304°
2026-05-05 11:30 35.94960 66.65460 26548 ft 494 kts 304°
2026-05-05 11:30 35.96909 66.61959 26588 ft 494 kts 304°
2026-05-05 11:30 35.98853 66.58463 26628 ft 494 kts 304°
2026-05-05 11:30 36.00802 66.54954 26666 ft 495 kts 304°
2026-05-05 11:31 36.02749 66.51445 26704 ft 495 kts 304°
2026-05-05 11:31 36.04697 66.47930 26741 ft 495 kts 304°
2026-05-05 11:31 36.06643 66.44415 26777 ft 496 kts 304°
2026-05-05 11:31 36.08590 66.40896 26810 ft 496 kts 304°
2026-05-05 11:32 36.10539 66.37368 26843 ft 496 kts 304°
2026-05-05 11:32 36.12486 66.33842 26874 ft 497 kts 304°
2026-05-05 11:32 36.14430 66.30315 26906 ft 497 kts 304°
2026-05-05 11:32 36.16355 66.26821 26938 ft 497 kts 304°
2026-05-05 11:33 36.18306 66.23277 26969 ft 497 kts 304°
2026-05-05 11:33 36.20255 66.19732 26999 ft 498 kts 304°
2026-05-05 11:33 36.22201 66.16188 27028 ft 498 kts 303°
2026-05-05 11:33 36.24148 66.12637 27056 ft 498 kts 303°
2026-05-05 11:34 36.26099 66.09071 27085 ft 498 kts 303°
2026-05-05 11:34 36.28046 66.05509 27112 ft 499 kts 303°
2026-05-05 11:34 36.29992 66.01945 27136 ft 499 kts 303°
2026-05-05 11:34 36.31917 65.98415 27163 ft 499 kts 303°
2026-05-05 11:35 36.33864 65.94842 27188 ft 499 kts 303°
2026-05-05 11:35 36.35809 65.91269 27213 ft 500 kts 303°
2026-05-05 11:35 36.37756 65.87689 27236 ft 500 kts 303°
2026-05-05 11:35 36.39698 65.84115 27257 ft 500 kts 303°
2026-05-05 11:36 36.41643 65.80531 27278 ft 500 kts 303°
2026-05-05 11:36 36.43587 65.76944 27300 ft 500 kts 303°
2026-05-05 11:36 36.45529 65.73359 27320 ft 501 kts 303°
2026-05-05 11:36 36.47476 65.69761 27340 ft 501 kts 303°
2026-05-05 11:37 36.49417 65.66169 27360 ft 501 kts 303°
2026-05-05 11:37 36.51356 65.62578 27380 ft 501 kts 303°
2026-05-05 11:37 36.53299 65.58975 27399 ft 501 kts 303°
2026-05-05 11:37 36.55244 65.55365 27417 ft 501 kts 303°
2026-05-05 11:38 36.57160 65.51803 27434 ft 501 kts 303°
2026-05-05 11:38 36.59102 65.48191 27451 ft 502 kts 303°
2026-05-05 11:38 36.61046 65.44570 27468 ft 502 kts 303°
2026-05-05 11:38 36.62983 65.40959 27484 ft 502 kts 303°
2026-05-05 11:39 36.64925 65.37335 27500 ft 502 kts 303°
2026-05-05 11:39 36.66865 65.33712 27516 ft 502 kts 303°
2026-05-05 11:39 36.68801 65.30091 27531 ft 502 kts 303°
2026-05-05 11:39 36.70717 65.26503 27545 ft 502 kts 303°
2026-05-05 11:40 36.72653 65.22876 27559 ft 503 kts 303°
2026-05-05 11:40 36.74587 65.19247 27573 ft 503 kts 303°
2026-05-05 11:40 36.76519 65.15618 27587 ft 503 kts 303°
2026-05-05 11:40 36.78455 65.11979 27601 ft 503 kts 303°
2026-05-05 11:41 36.80392 65.08332 27613 ft 503 kts 303°
2026-05-05 11:41 36.82332 65.04678 27626 ft 503 kts 303°
2026-05-05 11:41 36.84239 65.01080 27638 ft 503 kts 303°
2026-05-05 11:41 36.86172 64.97429 27650 ft 503 kts 303°
2026-05-05 11:42 36.88106 64.93775 27663 ft 503 kts 303°
2026-05-05 11:42 36.90034 64.90125 27674 ft 503 kts 303°
2026-05-05 11:42 36.91963 64.86472 27685 ft 504 kts 303°
2026-05-05 11:42 36.93891 64.82812 27696 ft 504 kts 302°
2026-05-05 11:43 36.95612 64.78990 27705 ft 503 kts 294°
2026-05-05 11:43 36.96903 64.74929 27714 ft 503 kts 289°
2026-05-05 11:43 36.98029 64.70786 27724 ft 503 kts 287°
2026-05-05 11:43 36.99076 64.66602 27734 ft 503 kts 286°
2026-05-05 11:44 37.00080 64.62409 27745 ft 503 kts 286°
2026-05-05 11:44 37.01055 64.58262 27755 ft 503 kts 286°
2026-05-05 11:44 37.02053 64.54009 27765 ft 503 kts 286°
2026-05-05 11:44 37.03044 64.49806 27774 ft 504 kts 286°
2026-05-05 11:45 37.04029 64.45653 27783 ft 504 kts 286°
2026-05-05 11:45 37.05029 64.41448 27792 ft 504 kts 286°
2026-05-05 11:45 37.06031 64.37243 27801 ft 504 kts 286°
2026-05-05 11:45 37.07032 64.33041 27809 ft 504 kts 286°
2026-05-05 11:46 37.08036 64.28822 27818 ft 504 kts 286°
2026-05-05 11:46 37.09036 64.24613 27827 ft 504 kts 286°
2026-05-05 11:46 37.10036 64.20395 27834 ft 504 kts 286°
2026-05-05 11:46 37.11033 64.16185 27841 ft 504 kts 286°
2026-05-05 11:47 37.12028 64.11973 27849 ft 504 kts 286°
2026-05-05 11:47 37.13021 64.07760 27856 ft 504 kts 286°
2026-05-05 11:47 37.14014 64.03538 27863 ft 504 kts 286°
2026-05-05 11:47 37.15005 63.99319 27870 ft 504 kts 286°
2026-05-05 11:48 37.16968 63.90939 27883 ft 504 kts 286°
2026-05-05 11:48 37.17954 63.86721 27890 ft 504 kts 286°
2026-05-05 11:48 37.18939 63.82496 27896 ft 504 kts 286°
2026-05-05 11:49 37.19922 63.78271 27902 ft 505 kts 286°
2026-05-05 11:49 37.20905 63.74045 27909 ft 505 kts 286°
2026-05-05 11:49 37.21888 63.69805 27915 ft 505 kts 285°
2026-05-05 11:49 37.22866 63.65581 27921 ft 505 kts 285°
2026-05-05 11:50 37.23844 63.61351 27927 ft 505 kts 285°
2026-05-05 11:50 37.24822 63.57113 27934 ft 505 kts 285°
2026-05-05 11:50 37.25796 63.52883 27939 ft 505 kts 285°
2026-05-05 11:50 37.26769 63.48651 27945 ft 505 kts 285°
2026-05-05 11:51 37.27742 63.44412 27950 ft 505 kts 285°
2026-05-05 11:51 37.28713 63.40174 27956 ft 505 kts 285°
2026-05-05 11:51 37.29671 63.35984 27960 ft 505 kts 285°
2026-05-05 11:51 37.30644 63.31719 27966 ft 505 kts 285°
2026-05-05 11:52 37.31609 63.27484 27971 ft 505 kts 285°
2026-05-05 11:52 37.32577 63.23228 27976 ft 505 kts 285°
2026-05-05 11:52 37.33542 63.18974 27981 ft 505 kts 285°
2026-05-05 11:52 37.34492 63.14784 27985 ft 505 kts 285°
2026-05-05 11:53 37.35454 63.10528 27990 ft 505 kts 285°
2026-05-05 11:53 37.36415 63.06274 27994 ft 505 kts 285°
2026-05-05 11:53 37.37371 63.02028 27999 ft 505 kts 285°
2026-05-05 11:53 37.38328 62.97774 28004 ft 505 kts 285°
2026-05-05 11:54 37.40235 62.89271 28012 ft 505 kts 285°
2026-05-05 11:54 37.42139 62.80754 28021 ft 505 kts 285°
2026-05-05 11:55 37.44034 62.72242 28029 ft 505 kts 285°
2026-05-05 11:55 37.45924 62.63720 28036 ft 505 kts 285°
2026-05-05 11:56 37.47799 62.55235 28044 ft 505 kts 285°
2026-05-05 11:56 37.49677 62.46702 28051 ft 505 kts 285°
2026-05-05 11:57 37.51550 62.38164 28059 ft 505 kts 285°
2026-05-05 11:57 37.53410 62.29652 28066 ft 506 kts 285°
2026-05-05 11:58 37.55274 62.21088 28073 ft 506 kts 285°
2026-05-05 11:58 37.57131 62.12523 28080 ft 506 kts 285°
2026-05-05 11:59 37.58982 62.03956 28085 ft 506 kts 285°
2026-05-05 11:59 37.60236 61.95317 28090 ft 505 kts 271°
2026-05-05 12:00 37.59281 61.86594 28093 ft 505 kts 251°
2026-05-05 12:00 37.57860 61.82560 28096 ft 504 kts 240°
2026-05-05 12:00 37.55937 61.78856 28119 ft 504 kts 234°
2026-05-05 12:01 37.53853 61.75304 28241 ft 501 kts 232°
2026-05-05 12:01 37.51718 61.71853 28370 ft 499 kts 231°
2026-05-05 12:01 37.49563 61.68438 28499 ft 496 kts 231°
2026-05-05 12:01 37.47415 61.65039 28628 ft 494 kts 231°
2026-05-05 12:02 37.45289 61.61654 28758 ft 492 kts 231°
2026-05-05 12:02 37.43184 61.58280 28886 ft 489 kts 232°
2026-05-05 12:02 37.41096 61.54913 29015 ft 487 kts 232°
2026-05-05 12:02 37.39045 61.51596 29141 ft 485 kts 232°
2026-05-05 12:03 37.36974 61.48243 29270 ft 483 kts 232°
2026-05-05 12:03 37.34917 61.44911 29398 ft 481 kts 232°
2026-05-05 12:03 37.32865 61.41593 29526 ft 479 kts 232°
2026-05-05 12:03 37.30816 61.38282 29654 ft 478 kts 232°
2026-05-05 12:04 37.28776 61.34991 29782 ft 476 kts 232°
2026-05-05 12:04 37.26743 61.31715 29910 ft 474 kts 232°
2026-05-05 12:04 37.24717 61.28455 30038 ft 473 kts 232°
2026-05-05 12:04 37.22699 61.25211 30165 ft 471 kts 232°
2026-05-05 12:05 37.20706 61.22006 30291 ft 469 kts 232°
2026-05-05 12:05 37.18709 61.18762 30419 ft 468 kts 232°
2026-05-05 12:05 37.16733 61.15530 30545 ft 466 kts 232°
2026-05-05 12:05 37.14767 61.12304 30671 ft 465 kts 232°
2026-05-05 12:06 37.12807 61.09089 30796 ft 464 kts 232°
2026-05-05 12:06 37.10849 61.05882 30922 ft 462 kts 232°
2026-05-05 12:06 37.08898 61.02692 31047 ft 461 kts 232°
2026-05-05 12:06 37.06949 60.99513 31173 ft 459 kts 232°
2026-05-05 12:07 37.05006 60.96346 31298 ft 458 kts 232°
2026-05-05 12:07 37.03064 60.93185 31423 ft 457 kts 232°
2026-05-05 12:07 37.01129 60.90039 31548 ft 455 kts 232°
2026-05-05 12:07 36.99199 60.86904 31674 ft 454 kts 232°
2026-05-05 12:08 36.97274 60.83776 31799 ft 453 kts 232°
2026-05-05 12:08 36.95367 60.80655 31924 ft 451 kts 232°
2026-05-05 12:08 36.93470 60.77539 32049 ft 450 kts 232°
2026-05-05 12:08 36.91579 60.74428 32175 ft 449 kts 232°
2026-05-05 12:09 36.89693 60.71326 32300 ft 447 kts 232°
2026-05-05 12:09 36.87810 60.68234 32425 ft 446 kts 232°
2026-05-05 12:09 36.85934 60.65157 32551 ft 445 kts 232°
2026-05-05 12:09 36.84059 60.62088 32676 ft 443 kts 232°
2026-05-05 12:10 36.82191 60.59033 32801 ft 442 kts 232°
2026-05-05 12:10 36.80350 60.56024 32924 ft 441 kts 232°
2026-05-05 12:10 36.78491 60.52992 33049 ft 440 kts 232°
2026-05-05 12:10 36.76632 60.49960 33175 ft 439 kts 232°
2026-05-05 12:11 36.74778 60.46940 33300 ft 437 kts 232°
2026-05-05 12:11 36.72932 60.43936 33425 ft 436 kts 232°
2026-05-05 12:11 36.71090 60.40940 33550 ft 435 kts 232°
2026-05-05 12:11 36.69251 60.37952 33675 ft 434 kts 232°
2026-05-05 12:12 36.67412 60.34967 33800 ft 433 kts 232°
2026-05-05 12:12 36.65581 60.32002 33925 ft 431 kts 232°
2026-05-05 12:12 36.63740 60.29052 34050 ft 430 kts 232°
2026-05-05 12:12 36.61898 60.26123 34175 ft 429 kts 231°
2026-05-05 12:13 36.58841 60.21280 34382 ft 427 kts 231°
2026-05-05 12:13 36.57007 60.18380 34507 ft 426 kts 231°
2026-05-05 12:13 36.55178 60.15488 34632 ft 425 kts 231°
2026-05-05 12:14 36.53354 60.12603 34757 ft 423 kts 231°
2026-05-05 12:14 36.51537 60.09731 34882 ft 422 kts 231°
2026-05-05 12:14 36.49724 60.06868 35007 ft 421 kts 231°
2026-05-05 12:14 36.47915 60.04011 35132 ft 419 kts 231°
2026-05-05 12:15 36.46107 60.01160 35257 ft 418 kts 231°
2026-05-05 12:15 36.44332 59.98361 35380 ft 417 kts 231°
2026-05-05 12:15 36.42537 59.95534 35505 ft 415 kts 231°
2026-05-05 12:15 36.40752 59.92725 35630 ft 414 kts 231°
2026-05-05 12:16 36.38968 59.89920 35755 ft 413 kts 231°
2026-05-05 12:16 36.37192 59.87131 35879 ft 411 kts 231°
2026-05-05 12:16 36.35420 59.84348 35983 ft 410 kts 231°
2026-05-05 12:16 36.33646 59.81566 36000 ft 412 kts 231°
2026-05-05 12:17 36.30072 59.75970 35999 ft 415 kts 231°
2026-05-05 12:17 36.26589 59.70265 35999 ft 418 kts 237°
2026-05-05 12:18 36.24148 59.63711 36000 ft 421 kts 254°
2026-05-05 12:18 36.23384 59.56515 36001 ft 424 kts 269°
2026-05-05 12:19 36.23548 59.49172 35999 ft 427 kts 272°
2026-05-05 12:19 36.23860 59.41800 36000 ft 430 kts 272°
2026-05-05 12:20 36.24152 59.34441 35999 ft 432 kts 272°
2026-05-05 12:20 36.24412 59.26963 36000 ft 434 kts 272°
2026-05-05 12:21 36.24654 59.19465 35999 ft 436 kts 272°
2026-05-05 12:21 36.24891 59.11970 35999 ft 438 kts 271°
2026-05-05 12:22 36.25125 59.04412 35999 ft 440 kts 271°
2026-05-05 12:22 36.25357 58.96820 36001 ft 441 kts 271°
2026-05-05 12:23 36.25585 58.89209 36000 ft 443 kts 271°
2026-05-05 12:23 36.25809 58.81564 36000 ft 444 kts 271°
2026-05-05 12:24 36.26030 58.73892 36000 ft 445 kts 271°
2026-05-05 12:24 36.26243 58.66264 36000 ft 446 kts 271°
2026-05-05 12:25 36.26455 58.58552 36000 ft 447 kts 271°
2026-05-05 12:25 36.26661 58.50837 36000 ft 448 kts 271°
2026-05-05 12:26 36.26819 58.43111 36000 ft 449 kts 267°
2026-05-05 12:26 36.26187 58.35419 35999 ft 449 kts 262°
2026-05-05 12:27 36.25327 58.27744 36000 ft 450 kts 261°
2026-05-05 12:27 36.24415 58.20062 36000 ft 451 kts 261°
2026-05-05 12:28 36.23507 58.12373 36000 ft 452 kts 261°
2026-05-05 12:28 36.22609 58.04713 35999 ft 452 kts 261°
2026-05-05 12:29 36.21704 57.96981 36000 ft 453 kts 261°
2026-05-05 12:29 36.20795 57.89262 36000 ft 453 kts 261°
2026-05-05 12:30 36.19879 57.81532 36000 ft 454 kts 261°
2026-05-05 12:30 36.18957 57.73792 36000 ft 455 kts 261°
2026-05-05 12:31 36.18028 57.66041 36000 ft 455 kts 261°
2026-05-05 12:31 36.17098 57.58328 36000 ft 456 kts 261°
2026-05-05 12:32 36.16143 57.50551 36000 ft 456 kts 261°
2026-05-05 12:32 36.15175 57.42785 36000 ft 456 kts 261°
2026-05-05 12:33 36.14202 57.35025 36000 ft 457 kts 261°
2026-05-05 12:33 36.13230 57.27302 36000 ft 457 kts 261°
2026-05-05 12:34 36.12240 57.19479 36000 ft 457 kts 261°
2026-05-05 12:34 36.11258 57.11749 36000 ft 458 kts 261°
2026-05-05 12:35 36.10263 57.03962 36000 ft 458 kts 261°
2026-05-05 12:35 36.09262 56.96167 36000 ft 459 kts 261°
2026-05-05 12:36 36.08259 56.88372 36000 ft 459 kts 261°
2026-05-05 12:36 36.07259 56.80619 36000 ft 459 kts 261°
2026-05-05 12:37 36.06246 56.72809 36000 ft 459 kts 260°
2026-05-05 12:37 36.05228 56.65002 36000 ft 460 kts 260°
2026-05-05 12:38 36.04211 56.57239 36000 ft 460 kts 260°
2026-05-05 12:38 36.03181 56.49428 36000 ft 460 kts 260°
2026-05-05 12:39 36.02147 56.41620 36000 ft 460 kts 260°
2026-05-05 12:39 36.01107 56.33811 36000 ft 460 kts 260°
2026-05-05 12:40 36.00061 56.25993 36000 ft 461 kts 260°
2026-05-05 12:40 35.99018 56.18241 36000 ft 461 kts 260°
2026-05-05 12:41 35.97961 56.10422 36000 ft 461 kts 260°
2026-05-05 12:41 35.96899 56.02607 36000 ft 461 kts 260°
2026-05-05 12:42 35.95831 55.94791 36000 ft 462 kts 260°
2026-05-05 12:42 35.94757 55.86965 36000 ft 462 kts 260°
2026-05-05 12:43 35.93687 55.79204 36000 ft 462 kts 260°
2026-05-05 12:43 35.92603 55.71387 36000 ft 462 kts 260°
2026-05-05 12:44 35.91514 55.63568 36000 ft 462 kts 260°
2026-05-05 12:44 35.90420 55.55751 36000 ft 462 kts 259°
2026-05-05 12:45 35.89319 55.47927 36000 ft 462 kts 259°
2026-05-05 12:45 35.88213 55.40104 36000 ft 463 kts 259°
2026-05-05 12:46 35.87103 55.32288 36000 ft 463 kts 259°
2026-05-05 12:46 35.85998 55.24524 36000 ft 463 kts 259°
2026-05-05 12:47 35.84880 55.16707 36000 ft 463 kts 259°
2026-05-05 12:47 35.83758 55.08893 36000 ft 463 kts 259°
2026-05-05 12:48 35.82630 55.01081 36000 ft 463 kts 259°
2026-05-05 12:48 35.81496 54.93265 36000 ft 463 kts 259°
2026-05-05 12:49 35.80357 54.85449 36000 ft 463 kts 259°
2026-05-05 12:49 35.79212 54.77630 36000 ft 463 kts 259°
2026-05-05 12:50 35.78063 54.69814 36000 ft 463 kts 259°
2026-05-05 12:50 35.76916 54.62030 36000 ft 464 kts 259°
2026-05-05 12:51 35.75761 54.54202 36000 ft 464 kts 259°
2026-05-05 12:51 35.74609 54.46434 36000 ft 464 kts 259°
2026-05-05 12:52 35.73442 54.38602 36000 ft 464 kts 259°
2026-05-05 12:52 35.72273 54.30793 36000 ft 464 kts 259°
2026-05-05 12:53 35.71097 54.22977 36000 ft 464 kts 259°
2026-05-05 12:53 35.69935 54.15213 36000 ft 464 kts 259°
2026-05-05 12:54 35.68205 54.03484 36000 ft 464 kts 259°
2026-05-05 12:55 35.67047 53.95668 36000 ft 464 kts 259°
2026-05-05 12:55 35.65882 53.87852 36000 ft 464 kts 259°
2026-05-05 12:56 35.64711 53.80041 36000 ft 465 kts 259°
2026-05-05 12:56 35.64119 53.76113 35827 ft 469 kts 259°
2026-05-05 12:56 35.63529 53.72199 35577 ft 475 kts 259°
2026-05-05 12:56 35.62920 53.68177 35321 ft 480 kts 259°
2026-05-05 12:57 35.62305 53.64120 35066 ft 486 kts 259°
2026-05-05 12:57 35.61681 53.60012 34810 ft 491 kts 259°
2026-05-05 12:57 35.61049 53.55865 34553 ft 496 kts 259°
2026-05-05 12:57 35.60408 53.51671 34296 ft 501 kts 259°
2026-05-05 12:58 35.59760 53.47433 33733 ft 512 kts 259°
2026-05-05 12:58 35.59090 53.43070 32889 ft 527 kts 259°
2026-05-05 12:58 35.58399 53.38573 31998 ft 542 kts 259°
2026-05-05 12:58 35.57948 53.35540 31458 ft 547 kts 259°
2026-05-05 12:59 35.57312 53.30932 31124 ft 545 kts 260°
2026-05-05 12:59 35.56717 53.26405 30678 ft 531 kts 261°
2026-05-05 12:59 35.56138 53.21935 29598 ft 530 kts 261°
2026-05-05 13:00 35.54976 53.12987 27777 ft 523 kts 261°
2026-05-05 13:00 35.54403 53.08627 27163 ft 513 kts 260°
2026-05-05 13:01 35.52718 52.96018 25336 ft 485 kts 260°
2026-05-05 13:01 35.52175 52.91971 24746 ft 476 kts 260°
2026-05-05 13:01 35.51640 52.87992 24155 ft 468 kts 260°
2026-05-05 13:01 35.51120 52.84127 23578 ft 460 kts 260°
2026-05-05 13:02 35.50602 52.80281 23004 ft 453 kts 260°
2026-05-05 13:02 35.50089 52.76502 22442 ft 445 kts 260°
2026-05-05 13:02 35.49579 52.72765 21882 ft 438 kts 260°
2026-05-05 13:02 35.49087 52.69104 21335 ft 431 kts 261°
2026-05-05 13:03 35.48636 52.65490 20799 ft 424 kts 261°
2026-05-05 13:03 35.48201 52.61943 20273 ft 417 kts 261°
2026-05-05 13:03 35.47774 52.58471 19758 ft 411 kts 261°
2026-05-05 13:03 35.47348 52.55021 19247 ft 404 kts 261°
2026-05-05 13:04 35.46929 52.51636 18748 ft 398 kts 261°
2026-05-05 13:04 35.46518 52.48327 18259 ft 392 kts 261°
2026-05-05 13:04 35.46108 52.45036 17775 ft 386 kts 261°
2026-05-05 13:04 35.45703 52.41800 17297 ft 381 kts 261°
2026-05-05 13:05 35.45304 52.38611 16825 ft 375 kts 261°
2026-05-05 13:05 35.44910 52.35472 16360 ft 370 kts 261°
2026-05-05 13:05 35.44520 52.32363 15899 ft 365 kts 261°
2026-05-05 13:05 35.44135 52.29308 15442 ft 360 kts 261°
2026-05-05 13:06 35.43753 52.26287 14994 ft 355 kts 261°
2026-05-05 13:06 35.43378 52.23318 14551 ft 350 kts 261°
2026-05-05 13:06 35.43005 52.20380 14110 ft 346 kts 261°
2026-05-05 13:06 35.42637 52.17489 13678 ft 341 kts 261°
2026-05-05 13:07 35.42278 52.14669 13261 ft 336 kts 261°
2026-05-05 13:07 35.41919 52.11853 12835 ft 332 kts 261°
2026-05-05 13:07 35.41563 52.09070 12416 ft 328 kts 261°
2026-05-05 13:07 35.41211 52.06322 12004 ft 324 kts 261°
2026-05-05 13:08 35.40864 52.03615 11598 ft 320 kts 261°
2026-05-05 13:08 35.40520 52.00938 11198 ft 316 kts 261°
2026-05-05 13:08 35.40181 51.98303 10940 ft 307 kts 261°
2026-05-05 13:08 35.39855 51.95770 10866 ft 293 kts 261°
2026-05-05 13:09 35.39533 51.93351 10753 ft 282 kts 259°
2026-05-05 13:09 35.39155 51.91042 10673 ft 270 kts 257°
2026-05-05 13:09 35.38767 51.88834 10565 ft 260 kts 257°
2026-05-05 13:09 35.38386 51.86703 10446 ft 252 kts 257°
2026-05-05 13:10 35.38018 51.84645 10332 ft 243 kts 257°
2026-05-05 13:10 35.37666 51.82674 10208 ft 236 kts 257°
2026-05-05 13:10 35.37315 51.80714 9962 ft 235 kts 257°
2026-05-05 13:10 35.36965 51.78763 9723 ft 233 kts 257°
2026-05-05 13:11 35.36619 51.76837 9500 ft 231 kts 257°
2026-05-05 13:11 35.36279 51.74938 9388 ft 222 kts 257°
2026-05-05 13:11 35.35960 51.73148 9331 ft 207 kts 257°
2026-05-05 13:11 35.35666 51.71496 9240 ft 190 kts 257°
2026-05-05 13:12 35.35394 51.69978 9116 ft 175 kts 257°
2026-05-05 13:12 35.35143 51.68577 8987 ft 162 kts 257°
2026-05-05 13:12 35.34906 51.67258 8788 ft 156 kts 257°
2026-05-05 13:12 35.34677 51.65991 8532 ft 153 kts 257°